FW4540 Weather Reports


Display with metric or nautical units.
time (UTC)temp
F
wind
direction
speed
MPH
gust
MPH
rain 1hr
in
rain 24hr
in
rain mn
in
humidity
%
barometer
mb
20260503231029 52 0 0.0 0.0 0.00 0.00 0.00 85 14.3
20260503224029 54 0 0.0 0.0 0.00 0.00 0.00 78 14.2
20260503223029 56 0 0.0 0.0 0.00 0.00 0.00 75 14.1
20260503222029 55 0 0.0 0.0 0.00 0.00 0.00 75 14.0
20260503221029 57 0 0.0 0.0 0.00 0.00 0.00 73 14.0
20260503220029 57 0 0.0 0.0 0.00 0.00 0.00 71 14.0
20260503214029 58 0 0.0 0.0 0.00 0.00 0.00 71 13.9
20260503213030 58 0 0.0 0.0 0.00 0.00 0.00 70 13.9
20260503212029 58 0 0.0 0.0 0.00 0.00 0.00 70 13.9
20260503210030 58 0 0.0 0.0 0.00 0.00 0.00 70 13.9
20260503205029 57 157 0.0 1.0 0.00 0.00 0.00 73 13.8
20260503204029 56 0 0.0 0.0 0.00 0.00 0.00 73 13.8
20260503203029 57 157 0.0 2.0 0.00 0.00 0.00 72 13.7
20260503201029 58 0 0.0 0.0 0.00 0.00 0.00 70 13.7
20260503200029 59 157 1.0 3.0 0.00 0.00 0.00 69 13.6
20260503195029 60 135 2.0 5.0 0.00 0.00 0.00 68 13.6
20260503194029 60 157 2.0 5.0 0.00 0.00 0.00 67 13.5
20260503193029 60 135 1.0 3.0 0.00 0.00 0.00 66 13.4
20260503192029 60 0 0.0 0.0 0.00 0.00 0.00 65 13.3
20260503191029 61 157 2.0 4.0 0.00 0.00 0.00 63 13.1
20260503190029 62 157 5.0 9.0 0.00 0.00 0.00 61 12.9
20260503185029 62 157 6.0 9.0 0.00 0.00 0.00 60 13.0
20260503184029 63 157 5.0 13.0 0.00 0.00 0.00 59 12.9
20260503183029 63 157 3.0 10.0 0.00 0.00 0.00 57 13.0
20260503182029 64 157 4.0 10.0 0.00 0.00 0.00 56 12.9
20260503181029 64 157 5.0 11.0 0.00 0.00 0.00 55 12.8
20260503180029 64 157 4.0 9.0 0.00 0.00 0.00 53 12.8
20260503175029 64 157 5.0 12.0 0.00 0.00 0.00 54 12.7
20260503174029 64 157 6.0 13.0 0.00 0.00 0.00 54 13.0
20260503172029 64 157 6.0 13.0 0.00 0.00 0.00 54 13.1
20260503171029 64 157 4.0 11.0 0.00 0.00 0.00 55 13.3
20260503131029 65 225 5.0 14.0 0.00 0.00 0.00 57 15.9
20260503072028 60 157 4.0 10.0 0.00 0.00 0.00 60 14.9
20260503071028 60 157 5.0 11.0 0.00 0.00 0.00 60 14.9
20260503055028 58 157 2.0 10.0 0.00 0.00 0.00 62 14.9
20260503054028 58 157 4.0 7.0 0.00 0.00 0.00 61 14.9
20260503053028 58 157 5.0 9.0 0.00 0.00 0.00 62 14.9
20260503052028 58 157 6.0 10.0 0.00 0.00 0.00 62 14.7
20260503051028 58 135 7.0 11.0 0.00 0.00 0.00 62 14.7
20260503050028 58 157 6.0 11.0 0.00 0.00 0.00 62 14.8
20260503045027 58 157 5.0 10.0 0.00 0.00 0.00 61 14.8
20260503044028 58 157 5.0 9.0 0.00 0.00 0.00 60 14.9
20260503042032 58 157 5.0 13.0 0.00 0.00 0.00 60 14.9
20260503041028 58 157 6.0 9.0 0.00 0.00 0.00 59 14.9
20260503035027 59 157 7.0 12.0 0.00 0.00 0.00 58 14.8
20260503034027 59 157 7.0 12.0 0.00 0.00 0.00 58 14.8
20260503033027 59 157 6.0 13.0 0.00 0.00 0.00 58 14.9
20260503032028 59 157 8.0 13.0 0.00 0.00 0.00 58 14.9
20260503031027 59 157 9.0 14.0 0.00 0.00 0.00 58 14.9
20260503030028 59 157 7.0 11.0 0.00 0.00 0.00 57 14.9
20260503024027 59 157 8.0 12.0 0.00 0.00 0.00 56 15.0
20260503023030 60 157 8.0 14.0 0.00 0.00 0.00 55 15.0
20260503022028 60 157 9.0 16.0 0.00 0.00 0.00 55 15.2
20260503021027 60 157 8.0 14.0 0.00 0.00 0.00 55 15.2
20260503015027 60 157 7.0 14.0 0.00 0.00 0.00 55 15.2
20260503013027 60 157 9.0 17.0 0.00 0.00 0.00 54 15.1
20260503012027 60 157 8.0 13.0 0.00 0.00 0.00 53 15.2
20260503010027 60 157 8.0 15.0 0.00 0.00 0.00 53 15.3
20260503005027 61 157 8.0 16.0 0.00 0.00 0.00 52 15.4
20260503003027 61 157 7.0 17.0 0.00 0.00 0.00 51 15.6
20260503002027 61 157 7.0 14.0 0.00 0.00 0.00 52 15.6
20260503001027 62 157 8.0 16.0 0.00 0.00 0.00 51 15.7
20260503000027 61 157 5.0 11.0 0.00 0.00 0.00 52 15.7
20260502234027 62 157 6.0 12.0 0.00 0.00 0.00 51 16.0
20260502233027 62 157 6.0 12.0 0.00 0.00 0.00 52 16.1